TimeEST,TemperatureF,Dew PointF,Humidity,Sea Level PressureIn,VisibilityMPH,Wind Direction,Wind SpeedMPH,Gust SpeedMPH,PrecipitationIn,Events,Conditions,WindDirDegrees,DateUTC
12:55 AM,32.0,17.8,56,30.10,10.0,WNW,9.2,17.3,N/A,,Partly Cloudy,290,2013-02-25 05:55:00
1:55 AM,31.8,18.1,57,30.11,10.0,West,8.1,-,N/A,,Mostly Cloudy,270,2013-02-25 06:55:00
2:55 AM,31.5,18.5,59,30.11,10.0,Variable,6.9,-,N/A,,Clear,0,2013-02-25 07:55:00
3:55 AM,30.7,18.3,60,30.11,10.0,WSW,9.2,-,N/A,,Clear,240,2013-02-25 08:55:00
4:55 AM,29.7,18.1,62,30.14,10.0,SW,3.5,-,N/A,,Clear,230,2013-02-25 09:55:00
5:55 AM,30.2,18.3,61,30.15,10.0,Calm,Calm,-,N/A,,Clear,0,2013-02-25 10:55:00
6:55 AM,30.2,18.9,63,30.18,10.0,West,3.5,-,N/A,,Clear,260,2013-02-25 11:55:00
7:55 AM,31.8,19.2,60,30.18,10.0,West,5.8,-,N/A,,Partly Cloudy,260,2013-02-25 12:55:00
8:55 AM,33.4,20.7,59,30.18,10.0,NNW,10.4,19.6,N/A,,Overcast,340,2013-02-25 13:55:00
9:55 AM,35.6,22.3,58,30.19,10.0,NNW,11.5,21.9,N/A,,Mostly Cloudy,330,2013-02-25 14:55:00
10:55 AM,40.1,23.2,51,30.20,10.0,North,6.9,-,N/A,,Partly Cloudy,350,2013-02-25 15:55:00
11:55 AM,42.1,23.9,49,30.20,10.0,North,6.9,-,N/A,,Clear,10,2013-02-25 16:55:00
12:55 PM,43.3,22.6,44,30.17,10.0,North,6.9,-,N/A,,Scattered Clouds,360,2013-02-25 17:55:00
1:55 PM,42.8,21.6,43,30.18,10.0,NNE,4.6,-,N/A,,Mostly Cloudy,30,2013-02-25 18:55:00
2:55 PM,45.3,22.3,40,30.17,10.0,Calm,Calm,-,N/A,,Partly Cloudy,0,2013-02-25 19:55:00
3:55 PM,45.0,21.7,40,30.16,10.0,NNE,4.6,-,N/A,,Clear,30,2013-02-25 20:55:00
4:55 PM,43.5,21.9,42,30.17,10.0,ENE,3.5,-,N/A,,Mostly Cloudy,60,2013-02-25 21:55:00
5:55 PM,40.8,22.1,47,30.19,10.0,Calm,Calm,-,N/A,,Partly Cloudy,0,2013-02-25 22:55:00
6:55 PM,33.8,23.7,67,30.21,10.0,Calm,Calm,-,N/A,,Clear,0,2013-02-25 23:55:00
7:55 PM,32.4,24.6,73,30.22,10.0,Calm,Calm,-,N/A,,Clear,0,2013-02-26 00:55:00
8:55 PM,30.2,24.6,80,30.24,10.0,Calm,Calm,-,N/A,,Clear,0,2013-02-26 01:55:00
9:55 PM,30.6,24.4,78,30.23,10.0,NNE,4.6,-,N/A,,Clear,30,2013-02-26 02:55:00
10:55 PM,28.9,25.0,85,30.24,10.0,Calm,Calm,-,N/A,,Clear,0,2013-02-26 03:55:00
11:55 PM,25.9,25.5,99,30.22,10.0,Calm,Calm,-,N/A,,Clear,0,2013-02-26 04:55:00